TimeAKST,TemperatureF,Dew PointF,Humidity,Sea Level PressureIn,VisibilityMPH,Wind Direction,Wind SpeedMPH,Gust SpeedMPH,PrecipitationIn,Events,Conditions,WindDirDegrees,DateUTC
12:04 AM,35.6,33.8,93,29.82,7.0,East,29.9,35.7,0.01,Rain,Light Rain,90,2013-03-03 09:04:00
12:53 AM,36.0,33.1,89,29.82,8.0,East,27.6,39.1,0.03,Rain,Light Rain,80,2013-03-03 09:53:00
1:11 AM,35.6,33.8,93,29.81,7.0,East,25.3,36.8,0.01,Rain,Light Rain,80,2013-03-03 10:11:00
1:27 AM,35.6,33.8,93,29.81,6.0,East,28.8,39.1,0.02,Rain,Light Rain,80,2013-03-03 10:27:00
1:53 AM,36.0,34.0,93,29.82,6.0,East,28.8,40.3,0.02,Rain,Light Rain,80,2013-03-03 10:53:00
2:29 AM,35.6,33.8,93,29.82,5.0,East,25.3,36.8,0.03,Rain-Snow,Light Rain,80,2013-03-03 11:29:00
3:53 AM,35.1,34.0,96,29.82,4.0,ENE,26.5,34.5,0.06,Rain-Snow,Light Rain,60,2013-03-03 12:53:00
4:53 AM,36.0,34.0,93,29.82,4.0,ENE,27.6,38.0,0.09,Rain-Snow,Light Rain,70,2013-03-03 13:53:00
5:53 AM,36.0,34.0,93,29.82,4.0,ENE,25.3,39.1,0.07,Rain,Rain,60,2013-03-03 14:53:00
6:53 AM,36.0,34.0,93,29.83,4.0,ENE,31.1,36.8,0.08,Rain,Rain,60,2013-03-03 15:53:00
7:53 AM,37.0,35.1,93,29.83,4.0,ENE,32.2,39.1,0.09,Rain,Rain,60,2013-03-03 16:53:00
8:53 AM,37.0,35.1,93,29.84,4.0,ENE,26.5,40.3,0.07,Rain,Rain,60,2013-03-03 17:53:00
9:53 AM,37.0,35.1,93,29.86,3.0,ENE,33.4,39.1,0.08,Rain,Rain,70,2013-03-03 18:53:00
10:53 AM,37.9,36.0,93,29.87,3.0,ENE,29.9,46.0,0.10,Rain,Rain,60,2013-03-03 19:53:00
11:53 AM,37.9,36.0,93,29.89,3.0,ENE,25.3,39.1,0.07,Rain,Light Rain,70,2013-03-03 20:53:00
12:53 PM,39.0,37.0,93,29.91,3.0,ENE,28.8,39.1,0.03,Rain,Light Rain,70,2013-03-03 21:53:00
1:53 PM,39.0,37.0,93,29.93,3.0,ENE,23.0,35.7,0.01,Rain,Light Rain,70,2013-03-03 22:53:00
2:53 PM,39.0,37.0,93,29.96,3.0,East,24.2,-,0.05,Rain,Light Rain,90,2013-03-03 23:53:00
3:00 PM,39.2,37.4,93,29.96,6.0,East,20.7,29.9,0.01,Rain,Light Rain,90,2013-03-04 00:00:00
3:53 PM,37.9,36.0,93,29.99,7.0,East,20.7,-,0.04,Rain,Rain,90,2013-03-04 00:53:00
4:53 PM,37.9,37.0,97,30.01,7.0,East,12.7,-,0.05,Rain,Light Rain,80,2013-03-04 01:53:00
5:53 PM,37.9,36.0,93,30.04,6.0,East,12.7,-,0.05,Rain,Light Rain,90,2013-03-04 02:53:00
6:37 PM,39.2,37.4,93,30.05,2.5,East,17.3,-,0.05,Rain,Light Rain,80,2013-03-04 03:37:00
6:53 PM,39.0,37.9,96,30.06,2.5,ENE,18.4,27.6,0.06,Rain,Light Rain,70,2013-03-04 03:53:00
7:40 PM,39.2,37.4,93,30.07,2.0,ENE,20.7,26.5,0.00,Rain,Light Rain,70,2013-03-04 04:40:00
7:53 PM,39.0,37.9,96,30.08,2.0,ENE,18.4,26.5,0.01,Rain,Light Rain,70,2013-03-04 04:53:00
8:53 PM,39.0,37.9,96,30.11,2.0,ENE,17.3,-,0.02,Rain,Light Rain,70,2013-03-04 05:53:00
9:53 PM,39.0,37.9,96,30.13,2.0,ENE,13.8,-,0.01,Rain,Light Rain,70,2013-03-04 06:53:00
10:53 PM,39.0,37.9,96,30.15,4.0,East,16.1,-,0.01,,Overcast,100,2013-03-04 07:53:00
11:53 PM,39.0,37.0,93,30.18,6.0,ESE,13.8,-,0.01,Rain,Light Rain,120,2013-03-04 08:53:00